Orbital Elements
Epoch 2014 Dec. 9.0 TT = JDT 2457000.5
T 2015 Apr. 23.71583 TT MPCW
q 2.1188797 (2000.0) P Q
n 0.13949152 Peri. 50.00913 +0.43312422 -0.90098734
a 3.6821730 Node 14.38629 +0.79325658 +0.36787042
e 0.4245573 Incl. 5.77593 +0.42795726 +0.22998514
P 7.07
From 475 observations 1993 Oct. 19-2015 Jan. 20, mean residual 0".9.
Nongravitational parameters A1 = +0.11, A2 = -0.0018.
|